{"data":{"norad_id":65174,"epoch":"2026-05-25T02:30:08.862336Z","epoch_age_seconds":65912,"freshness":"FRESH","line1":"1 65174U 25175A   26145.10426924  .00012998  00000+0  90316-3 0  9999","line2":"2 65174  97.4520  17.5246 0001898  79.9232 280.2209 15.05653333 44101","mean_motion":15.05653333,"eccentricity":0.0001898,"inclination_deg":97.452,"raan_deg":17.5246,"arg_perigee_deg":79.9232,"mean_anomaly_deg":280.2209,"bstar":0.00090316,"rev_number":4410,"period_min":95.639545202003,"perigee_km":548.18606473172,"apogee_km":550.8157960901,"semimajor_km":6927.6379304109,"source":"CELESTRAK","updated_at":"2026-05-25T13:38:20.688477Z"}}